[[{"header":{"parameterUnit":"m.s-1","parameterCategory":2,"la1":30.2991,"la2":30.254,"lo1":-89.0895,"lo2":-89.0444,"dy":0.0017,"dx":0.0017,"nx":28,"ny":28,"refTime":"2024-05-05T09:00:00:Z","depth":"0","parameterNumber":2,"parameterNumberName":"U-component_of_CURRENTS"},"data":[0,0,0,0,0,0,0,0,0,0,0,0,0,0,0,0,0,0,0,0,0,0,0,0,0,0,0,0,0,0,0,0,0,0,0,0,0,0,0,0,0,0,0,0,0,0,0,0,0,0,0,0,0,0,0,0,0,0,0.2015,0.2015,0,0.2037,0.2037,0.2037,0.2016,0.2015,0.2014,0.2014,0.201,0.2011,0.2011,0,0,0,0,0,0,0,0,0,0,0,0,0,0.1986,0.1986,0.2015,0.2015,0.2016,0.2037,0.2037,0.2037,0.2016,0.2015,0.2014,0.2013,0.201,0.2011,0.2011,0,0,0,0,0,0,0,0,0,0,0,0,0,0.2001,0.1986,0.2015,0.2008,0.2008,0.2036,0.2037,0.2037,0.2016,0.2015,0.2014,0.2013,0.201,0.2011,0.2011,0.204,0,0,0.2014,0.2015,0,0,0,0,0,0,0,0,0.2,0.2002,0.2009,0.2009,0.2009,0.2023,0.2025,0.2037,0.2017,0.2012,0.2014,0.2012,0.2014,0.2014,0.202,0.204,0.2039,0.2014,0.2015,0.2015,0.2016,0,0,0,0,0,0,0,0.1999,0.2001,0.2023,0.201,0.2009,0.2015,0.2015,0.2027,0.2018,0.2013,0.2011,0.2015,0.2013,0.2019,0.2019,0.2039,0.2014,0.2015,0.2016,0.2016,0.2114,0.2116,0,0,0,0,0,0,0.1998,0.2,0.2022,0.2023,0.2003,0.2016,0.2017,0.2019,0.2018,0.2018,0.2016,0.2014,0.2018,0.2018,0.2019,0.2077,0.2015,0.2016,0.2017,0.2112,0.2114,0.2116,0,0,0,0,0,0,0.1997,0.2,0.2021,0.2013,0.2016,0.2018,0.2021,0.202,0.203,0.2022,0.202,0.2027,0.2017,0.2018,0.2047,0.2075,0.2017,0.2017,0.2109,0.2112,0.2115,0.2176,0,0,0,0,0,0,0.1996,0.1999,0.2008,0.2013,0.2017,0.2051,0.2022,0.2021,0.2034,0.2032,0.203,0.2028,0.2016,0.2046,0.2048,0.2075,0.2018,0.2107,0.2111,0.2114,0.2171,0.2181,0.2189,0,0,0,0,0,0.1995,0.2009,0.2008,0.2011,0.2026,0.2052,0.2055,0.2052,0.2036,0.2053,0.2053,0.2029,0.2071,0.2048,0.205,0.2079,0.2105,0.211,0.2114,0.2167,0.2179,0.2188,0,0,0,0,0,0,0.2,0.2009,0.2007,0.2023,0.2043,0.2049,0.2066,0.2061,0.2075,0.2072,0.2055,0.2055,0.2089,0.2083,0.2058,0.2121,0.2084,0.2089,0.2124,0.2135,0.2143,0.2147,0.2019,0,0,0,0,0,0.2007,0.202,0.2032,0.2048,0.206,0.2066,0.2077,0.2076,0.2086,0.209,0.2088,0.2094,0.2111,0.2121,0.2131,0.2169,0.2176,0.2191,0.22,0.2207,0.2213,0.2254,0.2267,0.2132,0.2131,0.2131,0,0,0.2011,0.2021,0.2027,0.2051,0.2064,0.2092,0.207,0.2095,0.2115,0.2089,0.2118,0.2122,0.2128,0.2167,0.2182,0.2165,0.2253,0.2213,0.2219,0.2221,0.226,0.2273,0.2285,0.2135,0.2134,0.2134,0,0,0.2033,0.204,0.2062,0.2083,0.211,0.2119,0.2129,0.2144,0.215,0.2184,0.2171,0.2197,0.2218,0.2232,0.2241,0.2308,0.2295,0.2312,0.2361,0.2401,0.2412,0.2422,0.246,0.2473,0.2319,0.2319,0.232,0,0.204,0.2065,0.2075,0.2106,0.2126,0.2133,0.2164,0.2181,0.2202,0.2217,0.2201,0.2251,0.225,0.2305,0.2327,0.2327,0.2347,0.2316,0.2411,0.2421,0.243,0.2466,0.248,0.2323,0.2323,0.2322,0.2322,0,0.2078,0.2103,0.2122,0.216,0.2186,0.2217,0.224,0.2267,0.2272,0.2283,0.2332,0.2341,0.2371,0.238,0.2372,0.2443,0.2436,0.2413,0.2381,0.2447,0.2482,0.2494,0.2328,0.2327,0.2326,0.2325,0,0,0.2069,0.2134,0.2139,0.2162,0.2215,0.2234,0.2288,0.2332,0.236,0.2387,0.2428,0.2466,0.2467,0.2479,0.2479,0.2515,0.2596,0.2497,0.2497,0.2527,0.2693,0.2706,0.2721,0.259,0.2593,0.2595,0.2695,0,0.2094,0.215,0.2182,0.2236,0.2265,0.2301,0.2347,0.2388,0.2417,0.246,0.2486,0.2523,0.2507,0.2525,0.2564,0.2586,0.263,0.2571,0.263,0.2632,0.263,0.2737,0.269,0.2778,0.2707,0.2709,0.2711,0,0.2113,0.2148,0.2201,0.2266,0.2283,0.2315,0.2382,0.2423,0.2492,0.2522,0.2574,0.2591,0.2661,0.2624,0.2716,0.2681,0.2698,0.2709,0.2713,0.2711,0.2669,0.2699,0.2803,0.2753,0.273,0.2728,0.2727,0,0.2082,0.2157,0.2194,0.2217,0.2294,0.2322,0.236,0.2431,0.2473,0.2556,0.2606,0.2676,0.2722,0.2761,0.2802,0.2765,0.2894,0.2841,0.2872,0.2872,0.2838,0.2832,0.2892,0.2907,0.2907,0.2907,0.2907,0,0.2086,0.211,0.2176,0.2192,0.2236,0.2294,0.2346,0.2402,0.2487,0.2545,0.2626,0.2696,0.276,0.2838,0.2848,0.2924,0.294,0.2912,0.2913,0.286,0.2855,0.281,0.2767,0.2911,0.291,0.2909,0.2908,0,0.2037,0.2088,0.2123,0.2196,0.2218,0.2237,0.2325,0.2367,0.2465,0.2548,0.2584,0.2733,0.2851,0.2919,0.2998,0.2996,0.2982,0.306,0.2998,0.2992,0.2952,0.2913,0.2848,0.2754,0.3112,0.3113,0.3114,0,0.2018,0.2032,0.2097,0.2115,0.2142,0.2187,0.2226,0.2331,0.2387,0.2564,0.2609,0.2771,0.2884,0.3046,0.309,0.3158,0.3032,0.3124,0.3042,0.2981,0.2939,0.2782,0.2695,0.3022,0.3022,0.3023,0.3023,0,0.1972,0.199,0.2018,0.2054,0.2088,0.2131,0.2196,0.2237,0.2369,0.2471,0.2618,0.2729,0.2944,0.3031,0.315,0.3165,0.2999,0.3128,0.3082,0.2906,0.2722,0.2622,0.292,0.3024,0.3024,0.3023,0.3023,0.3023,0.192,0.1924,0.1961,0.1985,0.2023,0.2053,0.2064,0.2157,0.2241,0.237,0.2534,0.269,0.2915,0.3101,0.3101,0.3113,0.3019,0.3037,0.3008,0.2863,0.2735,0.3046,0.3136,0.3137,0.3137,0.3137,0.3138,0,0.185,0.187,0.1895,0.192,0.1924,0.1973,0.2031,0.2037,0.2098,0.2285,0.2415,0.2669,0.2821,0.2969,0.3113,0.3029,0.2837,0.2935,0.2705,0.2631,0.2951,0.2912,0.2936,0.2936,0.2936,0.2936,0.2936,0.2936,0.1815,0.1811,0.1827,0.181,0.1824,0.1808,0.1815,0.1849,0.1964,0.212,0.2288,0.2461,0.2806,0.3042,0.3063,0.2974,0.2706,0.2601,0.2527,0.2783,0.2789,0.2794,0.2748,0.2738,0.2738,0.211,0.2105,0.2102]},{"header":{"parameterUnit":"m.s-1","parameterCategory":2,"la1":30.2991,"la2":30.254,"lo1":-89.0895,"lo2":-89.0444,"dy":0.0017,"dx":0.0017,"nx":28,"ny":28,"refTime":"2024-05-05T09:00:00:Z","depth":"0","parameterNumber":3,"parameterNumberName":"V-component_of_CURRENTS"},"data":[0,0,0,0,0,0,0,0,0,0,0,0,0,0,0,0,0,0,0,0,0,0,0,0,0,0,0,0,0,0,0,0,0,0,0,0,0,0,0,0,0,0,0,0,0,0,0,0,0,0,0,0,0,0,0,0,0,0,-0.0114,-0.0114,0,-0.0178,-0.0179,-0.018,-0.0225,-0.0225,-0.0226,-0.0226,-0.0305,-0.0307,-0.0309,0,0,0,0,0,0,0,0,0,0,0,0,0,-0.0062,-0.0062,-0.0114,-0.0115,-0.0115,-0.0178,-0.0179,-0.018,-0.0225,-0.0225,-0.0226,-0.0226,-0.0304,-0.0307,-0.0309,0,0,0,0,0,0,0,0,0,0,0,0,0,-0.0102,-0.0062,-0.0114,-0.0145,-0.0148,-0.0178,-0.0179,-0.018,-0.0225,-0.0225,-0.0226,-0.0226,-0.0304,-0.0306,-0.0309,-0.0318,0,0,-0.0318,-0.0319,0,0,0,0,0,0,0,0,-0.0099,-0.0104,-0.0139,-0.0142,-0.0146,-0.0193,-0.019,-0.0227,-0.0225,-0.0197,-0.0226,-0.0226,-0.0268,-0.0274,-0.0286,-0.0322,-0.0325,-0.0318,-0.032,-0.0321,-0.0321,0,0,0,0,0,0,0,-0.0097,-0.0101,-0.014,-0.014,-0.0144,-0.0166,-0.0172,-0.0197,-0.023,-0.0199,-0.0203,-0.0208,-0.027,-0.0283,-0.0288,-0.0327,-0.0318,-0.032,-0.0322,-0.0323,-0.0367,-0.0367,0,0,0,0,0,0,-0.0085,-0.0099,-0.0138,-0.0142,-0.0122,-0.0166,-0.0173,-0.0179,-0.023,-0.0238,-0.0208,-0.021,-0.0278,-0.0285,-0.0291,-0.0291,-0.0321,-0.0323,-0.0325,-0.0368,-0.0367,-0.0366,0,0,0,0,0,0,-0.0083,-0.0087,-0.0136,-0.0121,-0.0129,-0.0167,-0.0173,-0.018,-0.0191,-0.0236,-0.0244,-0.0211,-0.0279,-0.0287,-0.0306,-0.0295,-0.0325,-0.0327,-0.0368,-0.0367,-0.0367,-0.03,0,0,0,0,0,0,-0.0081,-0.0087,-0.0086,-0.012,-0.0129,-0.0144,-0.0172,-0.0181,-0.0193,-0.0197,-0.0241,-0.0249,-0.028,-0.0302,-0.0309,-0.03,-0.0329,-0.0369,-0.0368,-0.0367,-0.0303,-0.0298,-0.0293,0,0,0,0,0,-0.0079,-0.0073,-0.0085,-0.009,-0.0127,-0.0143,-0.0149,-0.0179,-0.0192,-0.0191,-0.0221,-0.0248,-0.0301,-0.0303,-0.0312,-0.0303,-0.0369,-0.0368,-0.0367,-0.0306,-0.0299,-0.0293,0,0,0,0,0,0,-0.0049,-0.0079,-0.0092,-0.0095,-0.0113,-0.015,-0.0154,-0.0172,-0.0196,-0.0199,-0.0242,-0.0252,-0.0267,-0.0292,-0.0294,-0.0313,-0.0339,-0.034,-0.029,-0.0283,-0.0278,-0.026,-0.0332,0,0,0,0,0,-0.0041,-0.0047,-0.0075,-0.0078,-0.0084,-0.0117,-0.0128,-0.0144,-0.017,-0.0181,-0.0212,-0.0243,-0.027,-0.0281,-0.031,-0.0317,-0.034,-0.0317,-0.0312,-0.0307,-0.0298,-0.0327,-0.0323,-0.0363,-0.0363,-0.0363,0,0,-0.0031,-0.0048,-0.0051,-0.0072,-0.0091,-0.0088,-0.0125,-0.0133,-0.013,-0.0186,-0.0192,-0.0228,-0.0269,-0.028,-0.0288,-0.0298,-0.0306,-0.0305,-0.0301,-0.0294,-0.0326,-0.0322,-0.0318,-0.0362,-0.0362,-0.0362,0,0,-0.0006,-0.0026,-0.0019,-0.0029,-0.0047,-0.0065,-0.0063,-0.0092,-0.0105,-0.0115,-0.0155,-0.0179,-0.0218,-0.0243,-0.0261,-0.0242,-0.0281,-0.0253,-0.0207,-0.0236,-0.0232,-0.023,-0.0246,-0.0246,-0.0245,-0.0245,-0.0245,0,0.001,0.0014,-0.0018,-0.001,-0.0009,-0.0049,-0.003,-0.0049,-0.0079,-0.0084,-0.0107,-0.0162,-0.0199,-0.0211,-0.0207,-0.0229,-0.0249,-0.0227,-0.0228,-0.0226,-0.0225,-0.0242,-0.0243,-0.0242,-0.0242,-0.0243,-0.0243,0,0.0042,0.0048,0.0052,0.0051,0.0048,0.0055,0.0032,0.0027,0.0005,-0.0017,-0.0037,-0.009,-0.0119,-0.0138,-0.0169,-0.0174,-0.0192,-0.0221,-0.0242,-0.0217,-0.0237,-0.0238,-0.0237,-0.0238,-0.0239,-0.024,0,0,0.0078,0.0077,0.008,0.0096,0.0084,0.009,0.0095,0.0091,0.0102,0.0059,0.0067,0.0009,-0.0025,-0.0047,-0.0091,-0.0118,-0.0129,-0.0159,-0.0162,-0.0169,-0.0183,-0.0194,-0.0198,-0.0161,-0.0161,-0.0161,-0.0197,0,0.0117,0.0153,0.0139,0.0179,0.0199,0.0174,0.0188,0.0178,0.0156,0.0152,0.0092,0.0075,0.0011,-0.0,-0.0037,-0.0105,-0.0132,-0.0116,-0.021,-0.0213,-0.0222,-0.0199,-0.0187,-0.0219,-0.0199,-0.0199,-0.02,0,0.0161,0.018,0.0224,0.0254,0.0262,0.0276,0.0297,0.0301,0.0278,0.026,0.0225,0.0177,0.0134,0.0073,-0.0025,-0.0012,-0.0088,-0.0147,-0.0151,-0.0185,-0.0227,-0.0243,-0.0223,-0.0382,-0.0202,-0.0202,-0.0202,0,0.0213,0.0245,0.0285,0.0293,0.0314,0.0331,0.034,0.0333,0.0358,0.0324,0.0337,0.0264,0.0245,0.0135,0.0014,-0.0006,-0.0093,-0.0139,-0.022,-0.0222,-0.0241,-0.0244,-0.0381,-0.021,-0.021,-0.021,-0.0209,0,0.0265,0.0301,0.0311,0.0335,0.0392,0.0384,0.0434,0.0429,0.0444,0.0484,0.0394,0.0419,0.0259,0.019,0.0055,-0.0075,-0.0064,-0.0203,-0.0231,-0.0217,-0.0217,-0.0382,-0.048,-0.0211,-0.0211,-0.021,-0.021,0,0.0315,0.0321,0.0374,0.0403,0.0417,0.0455,0.0505,0.0546,0.0539,0.0592,0.059,0.0547,0.0455,0.0293,0.0131,-0.0002,-0.0234,-0.0195,-0.016,-0.0183,-0.0416,-0.051,-0.068,-0.0748,-0.029,-0.029,-0.029,0,0.0344,0.0372,0.0422,0.0461,0.0475,0.0525,0.0569,0.0588,0.0642,0.068,0.0724,0.0664,0.0649,0.0411,0.0156,-0.0075,-0.0239,-0.0224,-0.027,-0.0419,-0.0545,-0.0618,-0.0669,-0.0267,-0.0267,-0.0268,-0.0268,0,0.0398,0.041,0.0451,0.0526,0.058,0.0648,0.0712,0.0779,0.0812,0.0872,0.0955,0.0953,0.0727,0.052,0.0187,0.0006,-0.0342,-0.0234,-0.0404,-0.0547,-0.0621,-0.0702,-0.025,-0.0269,-0.0269,-0.0269,-0.0269,-0.0269,0.0436,0.0474,0.0524,0.0599,0.0668,0.0765,0.0837,0.0929,0.1042,0.1154,0.1142,0.118,0.0847,0.0406,0.0133,-0.0352,-0.0368,-0.0495,-0.0596,-0.0655,-0.0729,-0.027,-0.0316,-0.0316,-0.0316,-0.0316,-0.0316,0,0.048,0.0523,0.0596,0.0688,0.0774,0.0801,0.0934,0.1026,0.1178,0.1296,0.1378,0.1262,0.0833,0.0381,-0.0269,-0.0632,-0.0775,-0.0838,-0.0949,-0.0983,-0.0583,-0.0589,-0.0678,-0.0678,-0.0678,-0.0677,-0.0677,-0.0677,0.0506,0.0577,0.0611,0.0756,0.0828,0.0953,0.1037,0.119,0.1313,0.1484,0.1546,0.1556,0.1245,0.0035,-0.0802,-0.101,-0.1251,-0.132,-0.1446,-0.119,-0.1166,-0.1143,-0.1172,-0.1381,-0.1382,-0.1787,-0.1792,-0.1795]}],[{"header":{"parameterUnit":"m.s-1","parameterCategory":2,"la1":30.2991,"la2":30.254,"lo1":-89.0895,"lo2":-89.0444,"dy":0.0017,"dx":0.0017,"nx":28,"ny":28,"refTime":"2024-05-05T09:00:00:Z","depth":"2","parameterNumber":2,"parameterNumberName":"U-component_of_CURRENTS"},"data":[0,0,0,0,0,0,0,0,0,0,0,0,0,0,0,0,0,0,0,0,0,0,0,0,0,0,0,0,0,0,0,0,0,0,0,0,0,0,0,0,0,0,0,0,0,0,0,0,0,0,0,0,0,0,0,0,0,0,0.2004,0.2005,0,0.2044,0.2044,0.2044,0.204,0.204,0.204,0.2039,0.2056,0.2057,0.2058,0,0,0,0,0,0,0,0,0,0,0,0,0,0.1955,0.1956,0.2004,0.2005,0.2006,0.2044,0.2044,0.2044,0.2041,0.204,0.204,0.2039,0.2056,0.2057,0.2058,0,0,0,0,0,0,0,0,0,0,0,0,0,0.1981,0.1956,0.2004,0.201,0.2011,0.2044,0.2044,0.2045,0.2041,0.204,0.2039,0.2039,0.2056,0.2057,0.2058,0.2078,0,0,0.2062,0.2062,0,0,0,0,0,0,0,0,0.198,0.1983,0.2008,0.201,0.2011,0.2039,0.2033,0.2055,0.2041,0.2027,0.2039,0.2039,0.205,0.2052,0.2058,0.2079,0.2079,0.2062,0.2063,0.2063,0.2064,0,0,0,0,0,0,0,0.1978,0.1981,0.2018,0.2009,0.2011,0.2021,0.2024,0.2037,0.2039,0.2028,0.2029,0.2037,0.205,0.2056,0.2058,0.208,0.2062,0.2063,0.2064,0.2064,0.2168,0.217,0,0,0,0,0,0,0.1977,0.198,0.2016,0.2019,0.1996,0.2023,0.2025,0.2028,0.204,0.2042,0.2037,0.2037,0.2055,0.2057,0.2059,0.2121,0.2063,0.2064,0.2065,0.2166,0.2168,0.2171,0,0,0,0,0,0,0.1976,0.198,0.2015,0.2002,0.2008,0.2024,0.2028,0.203,0.2045,0.2047,0.2048,0.2051,0.2054,0.2057,0.2089,0.212,0.2065,0.2066,0.2164,0.2167,0.217,0.2222,0,0,0,0,0,0,0.1974,0.1979,0.1989,0.2002,0.2009,0.2044,0.2029,0.2031,0.2051,0.2051,0.206,0.206,0.2054,0.2088,0.2091,0.2121,0.2067,0.2161,0.2165,0.2169,0.2218,0.2226,0.2234,0,0,0,0,0,0.1972,0.1989,0.1989,0.1994,0.2019,0.2045,0.205,0.2058,0.2053,0.2067,0.2078,0.206,0.2114,0.2091,0.2093,0.2125,0.2159,0.2164,0.2168,0.2214,0.2224,0.2233,0,0,0,0,0,0,0.1974,0.1991,0.1991,0.2012,0.2032,0.2046,0.2067,0.2067,0.2087,0.209,0.2084,0.2086,0.2127,0.2124,0.2098,0.2168,0.2135,0.214,0.2169,0.2179,0.2187,0.2184,0.2068,0,0,0,0,0,0.1979,0.1997,0.2012,0.2032,0.2044,0.2057,0.2072,0.2076,0.2093,0.21,0.2106,0.2122,0.2148,0.216,0.2177,0.2215,0.2213,0.2239,0.2247,0.2254,0.2256,0.2285,0.2295,0.2185,0.2185,0.2185,0,0,0.1985,0.2,0.2009,0.2035,0.2051,0.2074,0.2064,0.2093,0.2116,0.21,0.2138,0.215,0.2165,0.2208,0.2226,0.2208,0.2288,0.226,0.2265,0.2264,0.2291,0.2301,0.231,0.2189,0.2188,0.2188,0,0,0.2006,0.2021,0.2041,0.2061,0.2091,0.2101,0.2111,0.2132,0.2148,0.2185,0.2185,0.2214,0.2248,0.2265,0.2278,0.2343,0.233,0.2356,0.2394,0.2422,0.2431,0.2438,0.2459,0.2468,0.236,0.236,0.236,0,0.2011,0.2039,0.2053,0.208,0.2103,0.2113,0.2141,0.2162,0.2191,0.2214,0.2204,0.2269,0.2275,0.2332,0.2356,0.236,0.2373,0.2352,0.2431,0.2438,0.2445,0.2464,0.2474,0.2363,0.2363,0.2362,0.2362,0,0.2042,0.2071,0.209,0.2124,0.2149,0.218,0.2207,0.2235,0.2253,0.2272,0.2332,0.2346,0.2383,0.2396,0.2395,0.2458,0.2451,0.2435,0.24,0.2459,0.2476,0.2485,0.2367,0.2366,0.2365,0.2365,0,0,0.2028,0.2097,0.2102,0.2127,0.2177,0.2195,0.2249,0.2297,0.2329,0.2365,0.2412,0.246,0.2467,0.2483,0.249,0.2513,0.2572,0.2501,0.2501,0.2511,0.2639,0.2643,0.2652,0.2573,0.2575,0.2576,0.2634,0,0.2046,0.21,0.2134,0.2185,0.2215,0.2252,0.2298,0.2344,0.2381,0.2428,0.2464,0.2509,0.2502,0.2523,0.2552,0.2567,0.2597,0.2558,0.259,0.259,0.2578,0.2663,0.2476,0.2513,0.2643,0.2644,0.2645,0,0.2059,0.2096,0.2149,0.2219,0.2235,0.2264,0.2334,0.2376,0.2451,0.2488,0.2544,0.2567,0.2627,0.2598,0.2664,0.2644,0.2652,0.2654,0.2656,0.2645,0.261,0.2476,0.2524,0.2659,0.2658,0.2657,0.2656,0,0.2028,0.2105,0.2146,0.2169,0.2245,0.2278,0.2318,0.2391,0.2437,0.2523,0.2569,0.2633,0.2674,0.2699,0.2727,0.2701,0.2787,0.2744,0.2755,0.2755,0.2594,0.2577,0.2788,0.2788,0.2788,0.2788,0.2788,0,0.2031,0.2058,0.2134,0.2151,0.2198,0.2261,0.2314,0.237,0.2457,0.2511,0.2593,0.2646,0.2703,0.276,0.2761,0.2805,0.2821,0.2783,0.2781,0.261,0.2595,0.2711,0.2701,0.279,0.279,0.2789,0.2789,0,0.1984,0.2037,0.2078,0.2158,0.2182,0.2209,0.23,0.2342,0.244,0.2515,0.2551,0.2675,0.276,0.2817,0.2865,0.2857,0.2881,0.2887,0.2689,0.2664,0.2815,0.2808,0.2899,0.29,0.29,0.2901,0.2901,0,0.1963,0.1984,0.2057,0.2078,0.2112,0.2166,0.2208,0.2314,0.2366,0.2518,0.2554,0.2685,0.276,0.287,0.2888,0.2926,0.2928,0.2755,0.2671,0.2844,0.2832,0.2823,0.2815,0.2472,0.2469,0.2466,0.2464,0,0.1919,0.1944,0.1977,0.2022,0.2062,0.2105,0.2176,0.221,0.2336,0.2416,0.2518,0.2593,0.2749,0.2726,0.2818,0.2796,0.2736,0.2708,0.2943,0.2489,0.245,0.2436,0.244,0.2442,0.2444,0.2446,0.2447,0.2448,0.1872,0.188,0.1926,0.1959,0.2,0.2026,0.2036,0.2116,0.2178,0.2266,0.239,0.2455,0.2541,0.26,0.2549,0.2527,0.2697,0.2561,0.2564,0.2571,0.2527,0.2494,0.2485,0.2487,0.2489,0.2491,0.2492,0,0.1811,0.1834,0.1864,0.1895,0.1897,0.1953,0.2002,0.199,0.2018,0.214,0.2212,0.211,0.2161,0.2239,0.22,0.2235,0.2158,0.2124,0.1995,0.2023,0.2046,0.1969,0.1782,0.1779,0.1776,0.1773,0,0,0.1778,0.1781,0.1798,0.178,0.1801,0.1785,0.1788,0.1787,0.1851,0.1836,0.1876,0.2069,0.2212,0.1958,0.1957,0.1863,0.191,0.1794,0.2381,0.226,0.2278,0.2337,0.2258,0,0,0,0,0]},{"header":{"parameterUnit":"m.s-1","parameterCategory":2,"la1":30.2991,"la2":30.254,"lo1":-89.0895,"lo2":-89.0444,"dy":0.0017,"dx":0.0017,"nx":28,"ny":28,"refTime":"2024-05-05T09:00:00:Z","depth":"2","parameterNumber":3,"parameterNumberName":"V-component_of_CURRENTS"},"data":[0,0,0,0,0,0,0,0,0,0,0,0,0,0,0,0,0,0,0,0,0,0,0,0,0,0,0,0,0,0,0,0,0,0,0,0,0,0,0,0,0,0,0,0,0,0,0,0,0,0,0,0,0,0,0,0,0,0,-0.0199,-0.02,0,-0.0259,-0.026,-0.0261,-0.0302,-0.0302,-0.0302,-0.0303,-0.0384,-0.0386,-0.0388,0,0,0,0,0,0,0,0,0,0,0,0,0,-0.0153,-0.0153,-0.0199,-0.02,-0.02,-0.0259,-0.026,-0.0261,-0.0302,-0.0302,-0.0302,-0.0303,-0.0383,-0.0386,-0.0388,0,0,0,0,0,0,0,0,0,0,0,0,0,-0.019,-0.0154,-0.0199,-0.0227,-0.023,-0.0259,-0.026,-0.0261,-0.0302,-0.0302,-0.0303,-0.0303,-0.0383,-0.0385,-0.0388,-0.0399,0,0,-0.0397,-0.0398,0,0,0,0,0,0,0,0,-0.0187,-0.0191,-0.0222,-0.0225,-0.0229,-0.0273,-0.0274,-0.0308,-0.0302,-0.0275,-0.0303,-0.0303,-0.0348,-0.0354,-0.0365,-0.0403,-0.0406,-0.0397,-0.0399,-0.04,-0.0401,0,0,0,0,0,0,0,-0.0185,-0.0189,-0.0224,-0.0223,-0.0227,-0.0249,-0.0254,-0.028,-0.031,-0.0278,-0.0281,-0.0286,-0.035,-0.0362,-0.0367,-0.0408,-0.0397,-0.04,-0.0402,-0.0403,-0.0451,-0.0451,0,0,0,0,0,0,-0.0174,-0.0187,-0.0222,-0.0225,-0.0208,-0.0249,-0.0255,-0.0259,-0.0309,-0.0317,-0.0286,-0.0288,-0.0357,-0.0364,-0.037,-0.0371,-0.04,-0.0403,-0.0405,-0.0452,-0.0451,-0.0451,0,0,0,0,0,0,-0.0173,-0.0176,-0.0219,-0.0207,-0.0214,-0.0249,-0.0253,-0.026,-0.0271,-0.0315,-0.0323,-0.0289,-0.0357,-0.0366,-0.0386,-0.0375,-0.0404,-0.0407,-0.0452,-0.0452,-0.0451,-0.0383,0,0,0,0,0,0,-0.0171,-0.0175,-0.0174,-0.0206,-0.0214,-0.0227,-0.0253,-0.0261,-0.0273,-0.0276,-0.0321,-0.0329,-0.0358,-0.0381,-0.0389,-0.038,-0.0409,-0.0453,-0.0452,-0.0451,-0.0386,-0.038,-0.0375,0,0,0,0,0,-0.0169,-0.0164,-0.0174,-0.0178,-0.0211,-0.0227,-0.0233,-0.026,-0.0273,-0.0272,-0.03,-0.0327,-0.0381,-0.0383,-0.0392,-0.0384,-0.0453,-0.0452,-0.0451,-0.0388,-0.0381,-0.0375,0,0,0,0,0,0,-0.0144,-0.0169,-0.018,-0.0183,-0.0199,-0.0233,-0.0238,-0.0254,-0.0277,-0.028,-0.0322,-0.0332,-0.0349,-0.0373,-0.0374,-0.0395,-0.0421,-0.0422,-0.037,-0.0364,-0.0359,-0.0342,-0.0412,0,0,0,0,0,-0.0136,-0.0141,-0.0166,-0.0168,-0.0174,-0.0204,-0.0214,-0.0229,-0.0253,-0.0264,-0.0294,-0.0325,-0.0351,-0.0362,-0.0392,-0.04,-0.0426,-0.0401,-0.0395,-0.0391,-0.0383,-0.0413,-0.0409,-0.0447,-0.0447,-0.0447,0,0,-0.0127,-0.0142,-0.0145,-0.0163,-0.018,-0.0177,-0.0211,-0.0219,-0.0216,-0.0269,-0.0275,-0.0311,-0.0351,-0.0363,-0.0371,-0.038,-0.0393,-0.0389,-0.0385,-0.038,-0.0412,-0.0408,-0.0405,-0.0447,-0.0447,-0.0447,0,0,-0.0107,-0.0123,-0.0117,-0.0125,-0.0142,-0.0158,-0.0156,-0.0182,-0.0193,-0.0203,-0.0241,-0.0264,-0.0303,-0.0326,-0.0344,-0.0326,-0.0368,-0.0338,-0.0292,-0.0321,-0.0318,-0.0316,-0.0338,-0.0338,-0.033,-0.0329,-0.0329,0,-0.0093,-0.0088,-0.0117,-0.0109,-0.0107,-0.0143,-0.0126,-0.0143,-0.017,-0.0174,-0.0195,-0.0249,-0.0284,-0.0296,-0.0291,-0.0313,-0.0336,-0.0312,-0.0313,-0.0312,-0.0311,-0.0334,-0.0335,-0.0326,-0.0326,-0.0327,-0.0327,0,-0.0067,-0.0059,-0.0055,-0.0055,-0.0057,-0.005,-0.0069,-0.0073,-0.0092,-0.0111,-0.0131,-0.0179,-0.0208,-0.0225,-0.0254,-0.026,-0.0281,-0.0307,-0.0327,-0.0302,-0.0329,-0.0331,-0.0321,-0.0322,-0.0323,-0.0324,0,0,-0.0037,-0.0036,-0.0032,-0.0015,-0.0025,-0.0019,-0.0012,-0.0015,-0.0004,-0.0042,-0.0035,-0.0087,-0.0118,-0.014,-0.018,-0.0205,-0.0218,-0.0245,-0.0248,-0.0261,-0.0278,-0.0286,-0.029,-0.0247,-0.0247,-0.0247,-0.0297,0,-0.0003,0.0028,0.0019,0.0058,0.0077,0.0057,0.0071,0.0064,0.0044,0.0041,-0.0012,-0.0028,-0.0084,-0.0094,-0.0127,-0.0197,-0.0223,-0.0202,-0.0305,-0.0308,-0.0313,-0.0292,-0.0269,-0.0311,-0.03,-0.0301,-0.0301,0,0.0033,0.0051,0.0093,0.0126,0.0133,0.0149,0.017,0.0176,0.0156,0.014,0.0109,0.0065,0.0026,-0.0027,-0.0126,-0.0111,-0.0185,-0.0243,-0.0247,-0.0279,-0.032,-0.0336,-0.0316,-0.0305,-0.0305,-0.0305,-0.0304,0,0.0076,0.011,0.0148,0.0158,0.0181,0.0201,0.0212,0.0206,0.0229,0.0201,0.0212,0.0143,0.0123,0.002,-0.0097,-0.0113,-0.0207,-0.0247,-0.0324,-0.0326,-0.0337,-0.0339,-0.0317,-0.0317,-0.0317,-0.0317,-0.0316,0,0.012,0.0155,0.0173,0.0195,0.0251,0.0248,0.0298,0.0296,0.031,0.0347,0.0267,0.0282,0.0134,0.0063,-0.0063,-0.019,-0.0183,-0.0308,-0.0337,-0.0313,-0.0312,-0.0336,-0.0338,-0.0318,-0.0318,-0.0318,-0.0317,0,0.0161,0.017,0.0221,0.0255,0.0272,0.031,0.0365,0.0403,0.0401,0.0448,0.0448,0.0395,0.0298,0.0149,-0.0012,-0.0131,-0.0265,-0.0315,-0.0271,-0.0293,-0.0374,-0.0372,-0.0407,-0.0407,-0.0408,-0.0408,-0.0409,0,0.0184,0.0211,0.0265,0.0304,0.0322,0.0375,0.042,0.0443,0.0492,0.0521,0.0558,0.049,0.0456,0.0222,-0.0004,-0.0216,-0.0252,-0.0337,-0.0369,-0.0358,-0.0383,-0.0379,-0.0376,-0.0359,-0.0359,-0.0359,-0.0359,0,0.0229,0.0243,0.0283,0.0359,0.0415,0.0482,0.0548,0.0606,0.064,0.0686,0.0733,0.0713,0.0498,0.0297,0.0005,-0.0147,-0.0304,-0.0343,-0.0342,-0.0337,-0.0317,-0.034,-0.0338,-0.0358,-0.0359,-0.0359,-0.0359,-0.0359,0.0261,0.0296,0.0346,0.0419,0.0491,0.058,0.0646,0.0725,0.0815,0.0892,0.0866,0.0854,0.0612,0.0258,-0.0013,-0.0299,-0.0294,-0.0394,-0.0393,-0.0392,-0.0374,-0.0356,-0.0402,-0.0402,-0.0402,-0.0402,-0.0403,0,0.0301,0.0337,0.0406,0.0493,0.0573,0.0611,0.0731,0.0794,0.0906,0.0987,0.1027,0.0822,0.0599,0.0322,-0.0096,-0.0353,-0.0383,-0.0433,-0.041,-0.0408,-0.0407,-0.0389,-0.0421,-0.0422,-0.0423,-0.0423,0,0,0.0322,0.0383,0.0412,0.0538,0.0613,0.073,0.0805,0.0908,0.0991,0.1055,0.108,0.1057,0.0724,0.0425,0.0068,-0.0171,-0.0234,-0.0226,-0.0183,-0.0112,-0.0108,-0.0357,-0.0324,0,0,0,0,0]}],[{"header":{"parameterUnit":"m.s-1","parameterCategory":2,"la1":30.2991,"la2":30.254,"lo1":-89.0895,"lo2":-89.0444,"dy":0.0017,"dx":0.0017,"nx":28,"ny":28,"refTime":"2024-05-05T09:00:00:Z","depth":"4","parameterNumber":2,"parameterNumberName":"U-component_of_CURRENTS"},"data":[0,0,0,0,0,0,0,0,0,0,0,0,0,0,0,0,0,0,0,0,0,0,0,0,0,0,0,0,0,0,0,0,0,0,0,0,0,0,0,0,0,0,0,0,0,0,0,0,0,0,0,0,0,0,0,0,0,0,0.1179,0.1179,0,0.1223,0.1224,0.1224,0.1249,0.1249,0.1249,0.1249,0.132,0.1322,0.1324,0,0,0,0,0,0,0,0,0,0,0,0,0,0.1135,0.1135,0.1179,0.1179,0.118,0.1223,0.1224,0.1224,0.1249,0.1249,0.1249,0.1249,0.132,0.1322,0.1324,0,0,0,0,0,0,0,0,0,0,0,0,0,0.1163,0.1135,0.1179,0.1198,0.12,0.1223,0.1224,0.1225,0.1249,0.1249,0.1249,0.1249,0.1319,0.1322,0.1324,0.1336,0,0,0.1332,0.1333,0,0,0,0,0,0,0,0,0.1161,0.1165,0.1194,0.1197,0.1199,0.1231,0.1235,0.1264,0.1248,0.1229,0.1249,0.1249,0.1293,0.1298,0.1304,0.134,0.1343,0.1332,0.1334,0.1335,0.1336,0,0,0,0,0,0,0,0.1159,0.1163,0.1196,0.1195,0.1198,0.1211,0.1215,0.124,0.1259,0.1231,0.1233,0.1239,0.1295,0.1302,0.1306,0.1344,0.1332,0.1335,0.1336,0.1337,0.146,0.1462,0,0,0,0,0,0,0.1154,0.1161,0.1194,0.1197,0.1181,0.1212,0.1216,0.122,0.1259,0.1265,0.1239,0.124,0.1297,0.1303,0.1309,0.1393,0.1335,0.1338,0.1339,0.1459,0.1461,0.1462,0,0,0,0,0,0,0.1153,0.1157,0.1192,0.1181,0.1186,0.1212,0.1217,0.1221,0.1252,0.1265,0.1271,0.1268,0.1298,0.1305,0.1355,0.1394,0.1339,0.1341,0.1457,0.1459,0.1462,0.1519,0,0,0,0,0,0,0.1152,0.1156,0.1171,0.118,0.1187,0.122,0.1217,0.1222,0.1254,0.1257,0.1291,0.1297,0.1298,0.1351,0.1357,0.1396,0.1343,0.1454,0.1458,0.1461,0.1515,0.1523,0.153,0,0,0,0,0,0.115,0.1159,0.1172,0.1177,0.1202,0.1221,0.1226,0.1245,0.1256,0.1273,0.1301,0.1297,0.1375,0.1355,0.1362,0.1402,0.1453,0.1457,0.146,0.1512,0.1521,0.153,0,0,0,0,0,0,0.1149,0.1163,0.1177,0.1192,0.1215,0.1226,0.1248,0.1261,0.1296,0.1308,0.1318,0.1326,0.1381,0.1386,0.1362,0.1447,0.1414,0.1419,0.145,0.146,0.1467,0.1468,0.1346,0,0,0,0,0,0.1157,0.117,0.1187,0.1206,0.1219,0.1241,0.1258,0.1271,0.1296,0.1313,0.1341,0.1371,0.1398,0.1425,0.1445,0.1497,0.1504,0.1528,0.1536,0.1542,0.1549,0.159,0.1602,0.1475,0.1475,0.1475,0,0,0.1164,0.1174,0.1184,0.1208,0.123,0.1255,0.1252,0.1285,0.1314,0.1316,0.1378,0.1398,0.1416,0.1468,0.1494,0.1482,0.1585,0.1547,0.1552,0.1555,0.1595,0.1608,0.1619,0.1477,0.1477,0.1476,0,0,0.1179,0.1196,0.1215,0.1233,0.1269,0.1283,0.1298,0.1331,0.1357,0.141,0.1419,0.1465,0.1513,0.1536,0.155,0.1615,0.1617,0.1627,0.1677,0.1718,0.1729,0.1738,0.1772,0.1784,0.1639,0.1639,0.1639,0,0.1194,0.1211,0.1226,0.1248,0.1268,0.1299,0.1325,0.1356,0.1405,0.1435,0.1439,0.1525,0.1543,0.1602,0.1629,0.1633,0.1654,0.164,0.1728,0.1737,0.1746,0.1778,0.179,0.1642,0.1642,0.1642,0.1641,0,0.1212,0.1239,0.1253,0.1292,0.1317,0.1345,0.1382,0.1428,0.1466,0.1496,0.1571,0.1601,0.1653,0.167,0.1673,0.175,0.1744,0.1725,0.1703,0.1762,0.1792,0.1804,0.1647,0.1646,0.1645,0.1644,0,0,0.1208,0.1256,0.1265,0.129,0.1339,0.136,0.1421,0.1477,0.1524,0.1585,0.1646,0.1707,0.1734,0.1753,0.177,0.1813,0.1898,0.1808,0.1808,0.1837,0.1995,0.1883,0.1884,0.1899,0.1902,0.1903,0.1993,0,0.1224,0.1262,0.1287,0.134,0.1362,0.1409,0.1461,0.152,0.1574,0.1645,0.1696,0.1761,0.1762,0.1801,0.1847,0.1884,0.1931,0.1875,0.1936,0.1937,0.1827,0.1895,0.1911,0.2002,0.2005,0.2007,0.2008,0,0.1228,0.1253,0.1296,0.1359,0.1377,0.142,0.1502,0.1555,0.1653,0.1697,0.1773,0.1815,0.1906,0.1887,0.1992,0.1961,0.199,0.201,0.2013,0.1894,0.1847,0.1929,0.2029,0.2028,0.2026,0.2025,0.2023,0,0.1197,0.126,0.1294,0.1312,0.1389,0.1432,0.1487,0.1578,0.1633,0.1743,0.1798,0.189,0.1958,0.2009,0.2069,0.2044,0.2169,0.213,0.2055,0.2047,0.2094,0.2083,0.22,0.22,0.22,0.22,0.22,0,0.1181,0.1214,0.1287,0.1304,0.1361,0.1424,0.15,0.1568,0.1672,0.1736,0.1831,0.1891,0.1996,0.2076,0.2103,0.2123,0.2202,0.2077,0.2067,0.2117,0.2107,0.2103,0.209,0.2203,0.2202,0.2202,0.2201,0,0.1137,0.1185,0.1228,0.1313,0.1347,0.139,0.1504,0.1552,0.1664,0.1752,0.1797,0.1931,0.203,0.2117,0.2211,0.2162,0.219,0.2176,0.2245,0.2235,0.203,0.202,0.2089,0.2086,0.2083,0.2081,0.2079,0,0.1115,0.1131,0.1221,0.1248,0.1292,0.1366,0.1415,0.1535,0.1582,0.1753,0.1783,0.1935,0.2008,0.2061,0.2149,0.2201,0.2176,0.2171,0.2078,0.2038,0.2022,0.2016,0.2009,0.2075,0.2074,0.2074,0.2073,0,0.1068,0.1108,0.1142,0.1196,0.1248,0.1296,0.1377,0.1403,0.1536,0.1659,0.1737,0.1805,0.1916,0.1991,0.2061,0.2084,0.2158,0.2142,0.2146,0.2059,0.2021,0.2007,0.2004,0.2064,0.2065,0.2066,0.2067,0,0.1038,0.1044,0.1092,0.1127,0.1189,0.1204,0.1255,0.1317,0.1388,0.1572,0.1595,0.1755,0.1891,0.1932,0.1989,0.2017,0.1977,0.1897,0.1913,0.1924,0.183,0.1755,0.1721,0,0,0,0,0,0.0998,0.099,0.1018,0.1048,0.1102,0.1138,0.122,0.1272,0.1401,0.1418,0.1505,0.1599,0.1696,0.1782,0.178,0.1916,0.1981,0.1903,0.1895,0.2013,0.2024,0.1927,0,0,0,0,0,0,0.0969,0.0991,0.0986,0.097,0.0982,0.1028,0.1075,0.1158,0.1175,0.132,0.1388,0.1507,0.1633,0.1695,0.1755,0.1781,0.1742,0.2009,0.2005,0.2007,0.2017,0.2025,0.193,0,0,0,0,0]},{"header":{"parameterUnit":"m.s-1","parameterCategory":2,"la1":30.2991,"la2":30.254,"lo1":-89.0895,"lo2":-89.0444,"dy":0.0017,"dx":0.0017,"nx":28,"ny":28,"refTime":"2024-05-05T09:00:00:Z","depth":"4","parameterNumber":3,"parameterNumberName":"V-component_of_CURRENTS"},"data":[0,0,0,0,0,0,0,0,0,0,0,0,0,0,0,0,0,0,0,0,0,0,0,0,0,0,0,0,0,0,0,0,0,0,0,0,0,0,0,0,0,0,0,0,0,0,0,0,0,0,0,0,0,0,0,0,0,0,-0.0065,-0.0065,0,-0.0092,-0.0093,-0.0093,-0.011,-0.011,-0.011,-0.011,-0.0172,-0.0173,-0.0175,0,0,0,0,0,0,0,0,0,0,0,0,0,-0.0051,-0.0051,-0.0065,-0.0065,-0.0066,-0.0092,-0.0093,-0.0093,-0.011,-0.011,-0.011,-0.011,-0.0171,-0.0173,-0.0175,0,0,0,0,0,0,0,0,0,0,0,0,0,-0.0066,-0.0051,-0.0065,-0.0077,-0.0079,-0.0092,-0.0093,-0.0093,-0.011,-0.011,-0.011,-0.011,-0.017,-0.0173,-0.0175,-0.0187,0,0,-0.0182,-0.0183,0,0,0,0,0,0,0,0,-0.0065,-0.0066,-0.0075,-0.0077,-0.0078,-0.0098,-0.011,-0.0126,-0.011,-0.0098,-0.011,-0.011,-0.015,-0.0154,-0.0158,-0.0189,-0.0192,-0.0182,-0.0184,-0.0185,-0.0185,0,0,0,0,0,0,0,-0.0064,-0.0065,-0.0076,-0.0076,-0.0077,-0.009,-0.0092,-0.0113,-0.0123,-0.0099,-0.01,-0.0103,-0.0151,-0.0156,-0.016,-0.0193,-0.0182,-0.0184,-0.0186,-0.0187,-0.023,-0.0229,0,0,0,0,0,0,-0.0059,-0.0064,-0.0075,-0.0077,-0.0072,-0.009,-0.0092,-0.0091,-0.0122,-0.0127,-0.0103,-0.0104,-0.0152,-0.0157,-0.0162,-0.0168,-0.0185,-0.0187,-0.0188,-0.023,-0.0229,-0.0229,0,0,0,0,0,0,-0.0059,-0.006,-0.0074,-0.0071,-0.0074,-0.009,-0.0089,-0.0092,-0.0098,-0.0125,-0.0131,-0.0107,-0.0152,-0.0159,-0.0178,-0.0171,-0.0188,-0.019,-0.023,-0.023,-0.0229,-0.0187,0,0,0,0,0,0,-0.0058,-0.0059,-0.0058,-0.0071,-0.0074,-0.0078,-0.0089,-0.0092,-0.01,-0.0101,-0.013,-0.0136,-0.0153,-0.0175,-0.0181,-0.0175,-0.0192,-0.023,-0.023,-0.0229,-0.0189,-0.0185,-0.0182,0,0,0,0,0,-0.0057,-0.0053,-0.0058,-0.006,-0.0072,-0.0078,-0.008,-0.0092,-0.01,-0.0099,-0.0119,-0.0135,-0.0176,-0.0176,-0.0183,-0.0178,-0.0231,-0.023,-0.0229,-0.019,-0.0186,-0.0182,0,0,0,0,0,0,-0.0046,-0.0054,-0.006,-0.0059,-0.0067,-0.008,-0.0083,-0.0092,-0.0106,-0.011,-0.0135,-0.0142,-0.0155,-0.0174,-0.0174,-0.0189,-0.0205,-0.0205,-0.0172,-0.0169,-0.0165,-0.0156,-0.0194,0,0,0,0,0,-0.0044,-0.0043,-0.0053,-0.0052,-0.0055,-0.007,-0.0075,-0.0082,-0.0096,-0.0103,-0.0123,-0.0144,-0.0158,-0.0169,-0.0186,-0.0198,-0.0222,-0.0199,-0.0195,-0.0192,-0.019,-0.0222,-0.0221,-0.0227,-0.0227,-0.0227,0,0,-0.004,-0.0044,-0.0044,-0.005,-0.0059,-0.0054,-0.0073,-0.0078,-0.0073,-0.0108,-0.0114,-0.0135,-0.0158,-0.0167,-0.0174,-0.0183,-0.0202,-0.0192,-0.0189,-0.0188,-0.0221,-0.0221,-0.022,-0.0227,-0.0227,-0.0227,0,0,-0.0029,-0.0035,-0.003,-0.0032,-0.0041,-0.0047,-0.0047,-0.0061,-0.0066,-0.0076,-0.0095,-0.0113,-0.0139,-0.0151,-0.016,-0.0151,-0.0183,-0.0156,-0.0134,-0.0165,-0.0165,-0.0165,-0.0191,-0.0194,-0.0156,-0.0155,-0.0155,0,-0.0025,-0.0016,-0.003,-0.0022,-0.0019,-0.004,-0.0028,-0.0035,-0.0054,-0.0057,-0.0072,-0.0106,-0.0129,-0.0134,-0.0129,-0.0144,-0.0166,-0.0146,-0.0161,-0.0162,-0.0163,-0.0189,-0.0192,-0.0153,-0.0154,-0.0154,-0.0154,0,-0.0008,0.0001,0.0004,0.0009,0.0011,0.0016,0.0009,0.0005,-0.0008,-0.002,-0.0034,-0.0066,-0.0085,-0.0094,-0.011,-0.0121,-0.0137,-0.0152,-0.017,-0.0159,-0.0188,-0.0192,-0.015,-0.0151,-0.0152,-0.0152,0,0,0.0002,0.0014,0.0016,0.0029,0.0031,0.0035,0.0044,0.0044,0.0049,0.0022,0.0023,-0.0006,-0.0031,-0.0043,-0.0068,-0.0096,-0.0122,-0.0124,-0.0127,-0.0147,-0.0189,-0.0184,-0.0188,-0.0143,-0.0144,-0.0144,-0.0205,0,0.002,0.0045,0.0047,0.0075,0.0088,0.0083,0.0096,0.0092,0.0079,0.0072,0.0036,0.0025,-0.0008,-0.0018,-0.0051,-0.0101,-0.0133,-0.0104,-0.0199,-0.0201,-0.0196,-0.0193,-0.0146,-0.0209,-0.021,-0.0211,-0.0211,0,0.0039,0.0055,0.0084,0.0114,0.012,0.0134,0.015,0.0158,0.0144,0.0131,0.0106,0.0077,0.0043,0.0008,-0.0078,-0.0059,-0.012,-0.0165,-0.0169,-0.0182,-0.0204,-0.0223,-0.022,-0.0219,-0.0218,-0.0218,-0.0217,0,0.0053,0.0084,0.011,0.012,0.0146,0.0161,0.0174,0.0172,0.0189,0.0166,0.0168,0.0115,0.0095,0.0012,-0.0076,-0.0081,-0.0176,-0.0196,-0.025,-0.0251,-0.0257,-0.0256,-0.0265,-0.0265,-0.0265,-0.0264,-0.0264,0,0.0074,0.0097,0.012,0.0136,0.0175,0.0183,0.0216,0.0218,0.0229,0.0252,0.0199,0.0201,0.0094,0.0032,-0.0063,-0.0163,-0.0168,-0.0245,-0.0266,-0.0237,-0.0233,-0.026,-0.0259,-0.0267,-0.0266,-0.0266,-0.0265,0,0.0084,0.0098,0.0133,0.0166,0.0182,0.0207,0.0256,0.028,0.0283,0.031,0.0309,0.0265,0.0183,0.0075,-0.0057,-0.0135,-0.0239,-0.0277,-0.0228,-0.0246,-0.0299,-0.0295,-0.0344,-0.0344,-0.0345,-0.0345,-0.0345,0,0.0091,0.0108,0.0152,0.0179,0.0197,0.0238,0.0271,0.0299,0.033,0.0352,0.0369,0.0312,0.0263,0.0097,-0.0037,-0.0212,-0.0242,-0.0301,-0.031,-0.0291,-0.0307,-0.0303,-0.0298,-0.0346,-0.0346,-0.0346,-0.0346,0,0.0106,0.0118,0.0146,0.0196,0.0237,0.029,0.034,0.0375,0.0411,0.0418,0.043,0.035,0.0258,0.0114,-0.002,-0.015,-0.0264,-0.0304,-0.0305,-0.0315,-0.0294,-0.0308,-0.0303,-0.0347,-0.0346,-0.0346,-0.0346,0,0.0116,0.0134,0.0167,0.0214,0.0269,0.0328,0.0356,0.0406,0.0444,0.0477,0.0477,0.0382,0.0328,0.0146,0.0021,-0.0103,-0.0144,-0.0195,-0.0202,-0.0203,-0.0148,-0.0101,-0.0109,0,0,0,0,0,0.0127,0.0145,0.0185,0.024,0.0295,0.0328,0.0399,0.0426,0.0467,0.0489,0.0493,0.0413,0.0246,0.017,0.0049,-0.0013,-0.0188,-0.0164,-0.0255,-0.0352,-0.0351,-0.031,0,0,0,0,0,0,0.0134,0.0166,0.0181,0.0252,0.0292,0.0359,0.0406,0.0437,0.0455,0.0479,0.0398,0.0369,0.0205,0.0317,0.0043,0.0004,-0.0074,-0.0239,-0.0242,-0.0352,-0.0351,-0.035,-0.0309,0,0,0,0,0]}]]